Regional Weather Roundup
Issued by NWS State College, PA

Home | Current Version | Previous Version | Graphics & Text | Print | Product List | Glossary On
Versions: 1 2 3 4 5 6 7 8 9 10 11 12 13 14 15 16 17 18 19 20 21 22 23 24 25 26 27 28 29 30 31 32 33 34 35 36 37 38 39 40 41 42 43 44 45 46 47 48 49 50
000
ASUS41 KCTP 251310
RWRCTP

REGIONAL WEATHER ROUNDUP
NATIONAL WEATHER SERVICE STATE COLLEGE PA
900 AM EDT MON MAY 25 2015

Note: "fair" indicates few or no clouds below 12,000 feet with no
significant weather and/or obstructions to visibility.

* = STATION THAT DOES NOT REPORT PRECIPITATION /E.G. RAIN...SNOW...ETC/
    THUNDER OR FOG.

PAZ002>004-007>009-013>016-020>023-029>032-251400-
WESTERN PENNSYLVANIA

CITY           SKY/WX    TMP DP  RH WIND       PRES   REMARKS
ERIE           MOSUNNY   73  51  46 S14G22    30.12S
MEADVILLE      MOSUNNY   69  53  56 S8        30.17S
FRANKLIN*      MOSUNNY   68  52  56 SW9       30.21S
NEW CASTLE     FAIR      70  57  63 CALM      30.19S
BEAVER COUNTY  NOT AVBL
BUTLER*        MOSUNNY   70  52  52 SW12      30.23R
PITTSBURGH INT PTSUNNY   71  52  50 SW12      30.20R
PITTSBURGH     SUNNY     70  49  47 SW10      30.21R
INDIANA*       SUNNY     70  54  56 SW12      30.26S
LATROBE        PTSUNNY   73  55  53 SW12      30.24R
WASHINGTON CO* MOSUNNY   70  55  60 SW6       30.24R
$$

PAZ004>006-010>012-017>019-024>028-033>037-041-042-045-046-049>053-251400-
CENTRAL PENNSYLVANIA

CITY           SKY/WX    TMP DP  RH WIND       PRES   REMARKS
BRADFORD       PTSUNNY   66  51  58 VRB7      30.23S
DUBOIS         MOSUNNY   70  51  51 SW12      30.22S
CLEARFIELD     MOSUNNY   64  52  64 CALM      30.24S
JOHNSTOWN      SUNNY     67  50  54 S10       30.27R
ALTOONA        SUNNY     69  52  54 SW5       30.26R
STATE COLLEGE  SUNNY     68  54  60 CALM      30.25S
WILLIAMSPORT   MOSUNNY   68  54  60 CALM      30.22F
SELINSGROVE    SUNNY     72  58  61 S9        30.24F
FT INDIANTOWN  SUNNY     69  59  72 VRB2      30.26F HAZE
CAPITAL CITY   SUNNY     70  58  65 E5        30.25F
HARRISBURG     SUNNY     72  59  63 E5        30.25F
YORK           SUNNY     71  58  63 VRB6      30.26S
$$

PAZ038>040-043-044-047-048-054-055-060>062-067>071-251400-
EASTERN PENNSYLVANIA

CITY           SKY/WX    TMP DP  RH WIND       PRES   REMARKS
SCRANTON       CLOUDY    72  54  53 SW8       30.24S
MOUNT POCONO   CLOUDY    67  54  63 SW9       30.29R
ALLENTOWN      PTSUNNY   69  57  65 S3        30.27S
QUAKERTOWN*    PTSUNNY   68  59  73 SW6       30.29S
READING        SUNNY     72  58  61 S5        30.26S
LANCASTER      SUNNY     71  59  65 SW5       30.27S
COATESVILLE    SUNNY     70  61  73 SW5       30.30R
POTTSTOWN      PTSUNNY   68  60  75 S6        30.29S
BLUE BELL      SUNNY     73  61  64 SW8       30.28S
DOYLESTOWN     MOSUNNY   68  58  70 VRB5      30.28R
WILLOW GROVE   NOT AVBL
NORTH PHILA    SUNNY     73  57  57 SW9       30.30S
PHILADELPHIA   MOSUNNY   73  59  61 SW12      30.30R
$$



USA.gov is the U.S. government's official web portal to all federal, state and local government web resources and services.